CW4588 Weather Reports


Display with metric or nautical units.
time (UTC)temp
F
wind
direction
speed
MPH
gust
MPH
rain 1hr
in
rain 24hr
in
rain mn
in
humidity
%
barometer
mb
20260905065047 53 324 0.0 0.0 0.00 0.00 0.00 100 991.0
20260905064532 52 341 0.0 0.0 0.00 0.00 0.00 100 991.0
20260905064034 52 325 0.0 0.0 0.00 0.00 0.00 100 990.9
20260905063522 51 300 0.0 0.0 0.00 0.00 0.00 100 990.9
20260905063030 51 329 0.0 0.0 0.00 0.00 0.00 100 990.9
20260905062544 51 317 0.0 0.0 0.00 0.00 0.00 100 990.8
20260905062029 50 318 0.0 0.0 0.00 0.00 0.00 100 990.8
20260905061548 50 339 0.0 0.0 0.00 0.00 0.00 100 990.8
20260905061056 50 342 0.0 0.0 0.00 0.00 0.00 100 990.8
20260905060522 50 326 0.0 0.0 0.00 0.00 0.00 100 990.8
20260905060038 50 280 0.0 0.0 0.00 0.00 0.00 100 990.8
20260905055539 50 342 0.0 0.0 0.00 0.00 0.00 100 990.8
20260905055042 49 315 0.0 0.0 0.00 0.00 0.00 100 990.8
20260905054558 49 290 0.0 0.0 0.00 0.00 0.00 100 990.8
20260905054025 49 335 0.0 0.0 0.00 0.00 0.00 100 990.8
20260905053602 49 335 0.0 0.0 0.00 0.00 0.00 100 990.8
20260905053051 49 297 0.0 0.0 0.00 0.00 0.00 100 990.8
20260905052607 49 338 0.0 0.0 0.00 0.00 0.00 100 990.9
20260905052050 49 339 0.0 0.0 0.00 0.00 0.00 100 990.9
20260905051544 49 319 0.0 0.0 0.00 0.00 0.00 100 990.9
20260905051025 49 332 0.0 0.0 0.00 0.00 0.00 100 990.8
20260905050531 48 339 0.0 0.0 0.00 0.00 0.00 100 990.8
20260905050043 48 334 0.0 0.0 0.00 0.00 0.00 100 990.8
20260905045525 48 312 0.0 0.0 0.00 0.00 0.00 100 990.8
20260905045034 48 314 0.0 0.0 0.00 0.00 0.00 100 990.8
20260905044521 47 314 0.0 0.0 0.00 0.00 0.00 100 990.8
20260905044029 47 314 0.0 0.0 0.00 0.00 0.00 100 990.9
20260905043526 47 318 0.0 0.0 0.00 0.00 0.00 100 990.9
20260905043029 47 319 0.0 0.0 0.00 0.00 0.00 100 990.9
20260905042535 47 319 0.0 0.0 0.00 0.00 0.00 100 990.9
20260905042024 46 319 0.0 0.0 0.00 0.00 0.00 100 990.9
20260905041538 46 191 0.0 0.0 0.00 0.00 0.00 100 990.9
20260905041024 46 191 0.0 0.0 0.00 0.00 0.00 100 990.8
20260905040532 46 191 0.0 0.0 0.00 0.00 0.00 100 990.8
20260905040043 46 191 0.0 0.0 0.00 0.00 0.00 100 990.8
20260905035525 46 191 0.0 0.0 0.00 0.00 0.00 100 990.8
20260905035029 45 191 0.0 0.0 0.00 0.00 0.00 100 990.8
20260905034544 45 191 0.0 0.0 0.00 0.00 0.00 100 990.8
20260905034029 45 191 0.0 0.0 0.00 0.00 0.00 100 990.7
20260905033534 45 191 0.0 0.0 0.00 0.00 0.00 100 990.7
20260905033029 45 191 0.0 0.0 0.00 0.00 0.00 100 990.7
20260905032526 45 191 0.0 0.0 0.00 0.00 0.00 100 990.8
20260905032038 45 191 0.0 0.0 0.00 0.00 0.00 100 990.8
20260905031522 44 191 0.0 0.0 0.00 0.00 0.00 100 990.8
20260905031101 44 191 0.0 0.0 0.00 0.00 0.00 100 990.7
20260905030530 44 191 0.0 0.0 0.00 0.00 0.00 100 990.7
20260905030051 44 191 0.0 0.0 0.00 0.00 0.00 100 990.8
20260905025535 44 191 0.0 0.0 0.00 0.00 0.00 100 990.8
20260905025020 44 191 0.0 0.0 0.00 0.00 0.00 100 990.8
20260905024526 44 191 0.0 0.0 0.00 0.00 0.00 100 990.8
20260905024055 43 191 0.0 0.0 0.00 0.00 0.00 100 990.8
20260905023541 43 191 0.0 0.0 0.00 0.00 0.00 100 990.8
20260905023037 43 191 0.0 0.0 0.00 0.00 0.00 100 990.8
20260905022519 43 191 0.0 0.0 0.00 0.00 0.00 100 990.7
20260905022027 43 191 0.0 0.0 0.00 0.00 0.00 100 990.7
20260905021534 43 191 0.0 0.0 0.00 0.00 0.00 100 990.7
20260905021031 43 191 0.0 0.0 0.00 0.00 0.00 100 990.7
20260905020529 43 191 0.0 0.0 0.00 0.00 0.00 100 990.7
20260905020034 43 191 0.0 0.0 0.00 0.00 0.00 100 990.7
20260905015529 43 191 0.0 0.0 0.00 0.00 0.00 100 990.6
20260905015035 43 191 0.0 0.0 0.00 0.00 0.00 100 990.6
20260905014521 43 191 0.0 0.0 0.00 0.00 0.00 100 990.6
20260905014038 43 191 0.0 0.0 0.00 0.00 0.00 100 990.8
20260905013524 43 191 0.0 0.0 0.00 0.00 0.00 100 990.8
20260905013027 42 191 0.0 0.0 0.00 0.00 0.00 99 990.8
20260905012607 42 191 0.0 0.0 0.00 0.00 0.00 99 990.9
20260905012052 42 191 0.0 0.0 0.00 0.00 0.00 99 990.9
20260905011520 42 191 0.0 0.0 0.00 0.00 0.00 99 990.9
20260905011034 42 191 0.0 0.0 0.00 0.00 0.00 99 990.9
20260905010523 42 191 0.0 0.0 0.00 0.00 0.00 99 990.9
20260905010033 42 191 0.0 0.0 0.00 0.00 0.00 99 990.9
20260905005553 42 191 0.0 0.0 0.00 0.00 0.00 99 990.9
20260905005020 42 191 0.0 0.0 0.00 0.00 0.00 98 990.9
20260905004527 42 191 0.0 0.0 0.00 0.00 0.00 98 990.9
20260905004036 42 191 0.0 0.0 0.00 0.00 0.00 98 990.9
20260905003541 42 191 0.0 0.0 0.00 0.00 0.00 98 990.9
20260905003028 42 191 0.0 0.0 0.00 0.00 0.00 98 990.9
20260905002534 42 191 0.0 0.0 0.00 0.00 0.00 97 990.9
20260905002020 41 191 0.0 0.0 0.00 0.00 0.00 97 990.9
20260905001533 42 191 0.0 0.0 0.00 0.00 0.00 97 990.9
20260905001017 41 191 0.0 0.0 0.00 0.00 0.00 97 991.1
20260905000526 42 191 0.0 0.0 0.00 0.00 0.00 97 991.1
20260905000052 42 191 0.0 0.0 0.00 0.00 0.00 97 991.1
20260904235536 42 191 0.0 0.0 0.00 0.00 0.00 97 991.3
20260904235022 42 191 0.0 0.0 0.00 0.00 0.00 97 991.3
20260904234532 42 191 0.0 0.0 0.00 0.00 0.00 97 991.3
20260904234045 42 191 0.0 0.0 0.00 0.00 0.00 97 991.4
20260904233558 42 191 0.0 0.0 0.00 0.00 0.00 97 991.4
20260904233026 42 191 0.0 0.0 0.00 0.00 0.00 97 991.4
20260904232539 42 191 0.0 0.0 0.00 0.00 0.00 97 991.4
20260904232024 43 191 0.0 0.0 0.00 0.00 0.00 97 991.4
20260904231530 43 191 0.0 0.0 0.00 0.00 0.00 97 991.4
20260904231031 43 191 0.0 0.0 0.00 0.00 0.00 97 991.4
20260904230546 43 191 0.0 0.0 0.00 0.00 0.00 97 991.4
20260904230033 43 191 0.0 0.0 0.00 0.00 0.00 97 991.4
20260904225539 43 191 0.0 0.0 0.00 0.00 0.00 97 991.4
20260904225024 44 191 0.0 0.0 0.00 0.00 0.00 97 991.4
20260904224538 44 191 0.0 0.0 0.00 0.00 0.00 97 991.4
20260904224043 44 191 0.0 0.0 0.00 0.00 0.00 97 991.5
20260904223528 44 191 0.0 0.0 0.00 0.00 0.00 97 991.5
20260904223047 44 191 0.0 0.0 0.00 0.00 0.00 97 991.5
20260904222528 44 191 0.0 0.0 0.00 0.00 0.00 97 991.6
20260904222033 44 191 0.0 0.0 0.00 0.00 0.00 97 991.6
20260904221522 44 191 0.0 0.0 0.00 0.00 0.00 96 991.6
20260904221041 45 191 0.0 0.0 0.00 0.00 0.00 96 991.7
20260904220525 45 191 0.0 0.0 0.00 0.00 0.00 96 991.7
20260904220048 45 191 0.0 0.0 0.00 0.00 0.00 96 991.7
20260904215554 45 191 0.0 0.0 0.00 0.00 0.00 96 991.8
20260904215037 45 191 0.0 0.0 0.00 0.00 0.00 96 991.8
20260904214551 45 191 0.0 0.0 0.00 0.00 0.00 96 991.8
20260904214035 45 191 0.0 0.0 0.00 0.00 0.00 96 991.9
20260904213520 45 191 0.0 0.0 0.00 0.00 0.00 96 991.9
20260904213035 44 191 0.0 0.0 0.00 0.00 0.00 96 991.9
20260904212553 44 191 0.0 0.0 0.00 0.00 0.00 96 991.9
20260904212035 44 191 0.0 0.0 0.00 0.00 0.00 95 991.9
20260904211522 44 191 0.0 0.0 0.00 0.00 0.00 95 991.9
20260904211036 44 191 0.0 0.0 0.00 0.00 0.00 95 992.0
20260904210521 44 191 0.0 0.0 0.00 0.00 0.00 95 992.0
20260904210037 44 191 0.0 0.0 0.00 0.00 0.05 95 992.0
20260904205537 44 191 0.0 0.0 0.00 0.00 0.05 94 992.0
20260904205022 44 191 0.0 0.0 0.00 0.00 0.05 94 992.0
20260904204535 44 191 0.0 0.0 0.00 0.00 0.05 94 992.0
20260904204039 44 191 0.0 0.0 0.00 0.00 0.05 94 992.0
20260904203526 45 191 0.0 0.0 0.00 0.00 0.05 94 992.0
20260904203033 45 191 0.0 0.0 0.00 0.00 0.05 94 992.0
20260904202546 45 191 0.0 0.0 0.00 0.00 0.05 93 992.0
20260904202031 45 191 0.0 0.0 0.00 0.00 0.05 93 992.0
20260904201523 45 191 0.0 0.0 0.00 0.00 0.05 93 992.0
20260904201103 46 191 0.0 0.0 0.00 0.00 0.05 93 992.1
20260904200550 46 191 0.0 0.0 0.00 0.00 0.05 93 992.1
20260904200021 46 191 0.0 0.0 0.00 0.00 0.05 93 992.1
20260904195536 46 191 0.0 0.0 0.00 0.00 0.05 93 992.3
20260904195021 46 191 0.0 0.0 0.00 0.00 0.05 92 992.3
20260904194529 46 191 0.0 0.0 0.00 0.00 0.05 92 992.3
20260904194043 47 191 0.0 0.0 0.00 0.00 0.05 92 992.4
20260904193533 47 191 0.0 0.0 0.00 0.00 0.05 92 992.4
20260904193022 47 191 0.0 0.0 0.00 0.00 0.05 91 992.4
20260904192527 47 191 0.0 0.0 0.00 0.00 0.05 91 992.4
20260904192043 48 191 0.0 0.0 0.00 0.00 0.05 91 992.4
20260904191529 48 191 0.0 0.0 0.00 0.00 0.05 90 992.4
20260904191028 48 191 0.0 0.0 0.00 0.00 0.05 90 992.5
20260904190607 48 191 0.0 0.0 0.00 0.00 0.05 90 992.5
20260904190036 49 191 0.0 0.0 0.00 0.00 0.05 89 992.5
20260904185538 49 191 0.0 0.0 0.00 0.00 0.05 89 992.6
20260904185030 49 191 0.0 0.0 0.00 0.00 0.05 88 992.6
20260904184538 50 191 0.0 0.0 0.00 0.00 0.05 88 992.6
20260904184023 50 191 0.0 0.0 0.00 0.00 0.05 88 992.8
20260904183533 50 191 0.0 0.0 0.00 0.00 0.05 87 992.8
20260904183051 51 191 0.0 0.0 0.00 0.00 0.05 86 992.8
20260904182537 51 191 0.0 0.0 0.00 0.00 0.05 86 992.7
20260904182047 51 191 0.0 0.0 0.00 0.00 0.05 86 992.7
20260904181532 52 191 0.0 0.0 0.00 0.00 0.05 86 992.7
20260904181038 52 191 0.0 0.0 0.00 0.00 0.05 85 992.8
20260904180539 53 191 0.0 0.0 0.00 0.00 0.05 84 992.8
20260904180026 53 191 0.0 0.0 0.00 0.00 0.05 84 992.8
20260904175528 53 191 0.0 0.0 0.00 0.00 0.05 84 992.7
20260904175023 54 191 0.0 0.0 0.00 0.00 0.05 84 992.7
20260904174527 54 191 0.0 0.0 0.00 0.00 0.05 84 992.7
20260904174044 54 191 0.0 0.0 0.00 0.00 0.05 84 992.6
20260904173527 55 191 0.0 0.0 0.00 0.00 0.05 84 992.6
20260904173030 55 190 0.0 0.0 0.00 0.00 0.05 85 992.6
20260904172544 55 190 0.0 0.0 0.00 0.00 0.05 85 992.6
20260904172033 55 190 0.0 0.0 0.00 0.00 0.05 85 992.6
20260904171558 55 190 0.0 0.0 0.00 0.00 0.05 85 992.6
20260904171027 55 190 0.0 0.0 0.00 0.00 0.05 85 992.7
20260904170534 55 242 0.0 0.0 0.00 0.00 0.05 85 992.7
20260904170042 55 242 0.0 0.0 0.00 0.00 0.05 84 992.6
20260904165534 55 143 0.0 0.0 0.00 0.00 0.05 85 992.5
20260904165047 56 143 0.0 0.0 0.00 0.00 0.05 85 992.5
20260904164547 56 143 0.0 0.0 0.00 0.00 0.05 84 992.5
20260904164034 56 143 0.0 0.0 0.00 0.00 0.05 83 992.6
20260904163524 56 127 0.0 0.0 0.00 0.00 0.05 83 992.6
20260904163103 56 126 0.0 0.0 0.00 0.00 0.05 82 992.6
20260904162531 56 126 0.0 0.0 0.00 0.00 0.05 82 992.6
20260904162036 56 126 0.0 0.0 0.00 0.00 0.05 81 992.6
20260904161530 56 33 0.0 0.0 0.00 0.00 0.05 80 992.6
20260904161044 57 109 0.0 0.0 0.00 0.00 0.05 81 992.6
20260904160524 57 26 0.0 0.0 0.00 0.00 0.05 80 992.6
20260904160031 57 26 1.0 0.0 0.00 0.00 0.05 79 992.6
20260904155527 57 24 1.0 0.0 0.00 0.00 0.05 80 992.6
20260904155032 57 13 0.0 0.0 0.00 0.00 0.05 81 992.6
20260904154536 58 10 0.0 0.0 0.00 0.00 0.05 81 992.6
20260904154026 58 10 0.0 0.0 0.00 0.00 0.05 80 992.7
20260904153532 58 10 0.0 0.0 0.00 0.00 0.05 79 992.7
20260904153045 59 79 0.0 0.0 0.00 0.00 0.05 79 992.7
20260904152529 59 79 2.0 0.0 0.00 0.00 0.05 75 992.9
20260904152102 59 17 4.0 0.0 0.00 0.00 0.05 72 992.9
20260904151525 60 16 3.0 0.0 0.00 0.00 0.04 70 992.9
20260904151036 61 27 1.0 0.0 0.00 0.00 0.04 66 992.9
20260904150520 62 16 1.0 0.0 0.00 0.00 0.04 62 993.0
20260904150025 62 310 1.0 0.0 0.00 0.00 0.04 61 992.9
20260904145535 62 9 0.0 0.0 0.00 0.00 0.04 59 992.9
20260904145020 62 278 0.0 0.0 0.00 0.00 0.04 59 992.9
20260904144548 62 334 0.0 0.0 0.00 0.00 0.04 62 992.9
20260904144041 62 235 0.0 0.0 0.00 0.00 0.04 60 992.8
20260904143526 62 342 0.0 0.0 0.00 0.00 0.04 62 992.8
20260904143034 62 156 0.0 0.0 0.00 0.00 0.04 60 992.8
20260904142548 62 228 0.0 0.0 0.00 0.00 0.04 59 992.9
20260904142036 62 195 0.0 0.0 0.00 0.00 0.04 59 992.9
20260904141524 62 280 0.0 0.0 0.00 0.00 0.04 60 992.9
20260904141028 63 192 0.0 0.0 0.00 0.00 0.04 60 993.0
20260904140534 63 177 0.0 0.0 0.00 0.00 0.04 59 993.0
20260904140032 63 271 0.0 0.0 0.00 0.00 0.04 59 993.0
20260904135536 63 229 0.0 0.0 0.00 0.00 0.04 58 993.1
20260904135023 64 288 0.0 0.0 0.00 0.00 0.04 60 993.1
20260904134530 64 208 0.0 0.0 0.00 0.00 0.04 60 993.1
20260904134044 63 249 0.0 0.0 0.00 0.00 0.04 62 993.2
20260904133529 63 230 0.0 0.0 0.00 0.00 0.04 62 993.2
20260904133036 62 219 0.0 0.0 0.00 0.00 0.04 62 993.2
20260904132529 62 219 0.0 0.0 0.00 0.00 0.04 60 993.2
20260904132055 62 223 0.0 0.0 0.00 0.00 0.04 61 993.2
20260904131521 62 191 0.0 0.0 0.00 0.00 0.04 59 993.2
20260904131057 63 191 0.0 0.0 0.00 0.00 0.04 58 993.3
20260904130524 63 205 0.0 0.0 0.00 0.00 0.04 59 993.3
20260904130041 64 230 0.0 0.0 0.00 0.00 0.04 57 993.3
20260904125524 65 242 0.0 0.0 0.00 0.00 0.04 57 993.4
20260904125038 65 280 0.0 0.0 0.00 0.00 0.04 56 993.4
20260904124528 65 280 0.0 0.0 0.00 0.00 0.04 56 993.4
20260904124033 65 157 0.0 0.0 0.00 0.00 0.04 55 993.5
20260904123539 65 171 0.0 0.0 0.00 0.00 0.04 51 993.5
20260904123031 65 252 0.0 0.0 0.00 0.00 0.04 55 993.5
20260904122557 65 201 0.0 0.0 0.00 0.00 0.04 54 993.5
20260904122031 65 223 0.0 0.0 0.00 0.00 0.04 54 993.5
20260904121537 65 161 0.0 0.0 0.00 0.00 0.04 56 993.5
20260904121023 65 197 0.0 0.0 0.00 0.00 0.04 53 993.7
20260904120603 65 146 0.0 0.0 0.00 0.00 0.04 53 993.7
20260904120030 65 154 0.0 0.0 0.00 0.00 0.04 53 993.7
20260904115534 65 228 0.0 0.0 0.00 0.00 0.04 52 993.8
20260904115020 65 188 0.0 0.0 0.00 0.00 0.04 53 993.8
20260904114532 65 235 0.0 0.0 0.00 0.00 0.04 56 993.8
20260904114111 65 115 0.0 0.0 0.00 0.00 0.04 57 993.9
20260904113533 64 94 0.0 0.0 0.00 0.00 0.04 55 993.9
20260904113021 63 150 0.0 0.0 0.00 0.00 0.04 61 993.9
20260904112541 62 156 0.0 0.0 0.00 0.00 0.04 59 994.1
20260904112036 61 229 0.0 0.0 0.00 0.00 0.04 63 994.1
20260904111525 60 199 0.0 0.0 0.00 0.00 0.04 65 994.1
20260904111101 60 174 0.0 0.0 0.00 0.00 0.04 69 994.2
20260904110525 60 174 0.0 0.0 0.00 0.00 0.04 69 994.2
20260904110032 60 174 0.0 0.0 0.00 0.00 0.04 68 994.2
20260904105546 61 228 0.0 0.0 0.00 0.00 0.04 68 994.1
20260904105025 61 34 0.0 0.0 0.00 0.00 0.04 68 994.1
20260904104542 61 34 0.0 0.0 0.00 0.00 0.04 68 994.1
20260904104053 61 34 0.0 0.0 0.00 0.00 0.04 68 994.1
20260904103539 61 34 0.0 0.0 0.00 0.00 0.04 59 994.1
20260904103024 62 34 0.0 0.0 0.00 0.00 0.04 60 994.1
20260904102541 63 34 0.0 0.0 0.00 0.00 0.04 59 994.2
20260904102024 63 332 1.0 0.0 0.00 0.00 0.04 55 994.2
20260904101528 64 335 2.0 0.0 0.00 0.00 0.04 55 994.3
20260904101040 65 12 2.0 0.0 0.00 0.00 0.04 54 994.4
20260904100543 65 41 1.0 0.0 0.00 0.00 0.04 56 994.4
20260904100055 65 342 0.0 0.0 0.00 0.00 0.04 55 994.4
20260904095535 65 92 0.0 0.0 0.00 0.00 0.04 57 994.4
20260904095022 65 133 0.0 0.0 0.00 0.00 0.04 58 994.4
20260904094532 65 112 0.0 0.0 0.00 0.00 0.04 57 994.4
20260904094037 65 132 0.0 0.0 0.00 0.00 0.04 57 994.5
20260904093532 65 70 0.0 0.0 0.00 0.00 0.00 56 994.5
20260904093030 64 214 0.0 0.0 0.00 0.00 0.00 58 994.5
20260904092551 63 86 0.0 0.0 0.00 0.00 0.00 60 994.6
20260904092027 62 204 0.0 0.0 0.00 0.00 0.00 58 994.5
20260904091540 62 226 0.0 0.0 0.00 0.00 0.00 63 994.5
20260904091045 61 103 0.0 0.0 0.00 0.00 0.00 64 994.6
20260904090530 60 74 0.0 0.0 0.00 0.00 0.00 71 994.6
20260904090024 60 126 0.0 0.0 0.00 0.00 0.00 72 994.6
20260904085525 60 129 0.0 0.0 0.00 0.00 0.00 72 994.6
20260904085042 61 129 0.0 0.0 0.00 0.00 0.00 72 994.6
20260904084527 61 129 0.0 0.0 0.00 0.00 0.00 72 994.6
20260904084031 61 129 0.0 0.0 0.00 0.00 0.00 68 994.8
20260904083542 62 129 0.0 0.0 0.00 0.00 0.00 70 994.8
20260904083025 62 129 0.0 0.0 0.00 0.00 0.00 68 994.8
20260904082530 63 129 0.0 0.0 0.00 0.00 0.00 68 994.7
20260904082047 63 129 0.0 0.0 0.00 0.00 0.00 67 994.7
20260904081535 63 247 0.0 0.0 0.00 0.00 0.00 65 994.7
20260904081042 64 247 0.0 0.0 0.00 0.00 0.00 64 994.7
20260904080527 64 281 0.0 0.0 0.00 0.00 0.00 64 994.7
20260904080022 64 319 0.0 0.0 0.00 0.00 0.00 68 994.7
20260904075527 64 342 0.0 0.0 0.00 0.00 0.00 67 994.7
20260904075024 64 342 0.0 0.0 0.00 0.00 0.00 68 994.7
20260904074539 63 322 0.0 0.0 0.00 0.00 0.00 71 994.7
20260904074038 63 336 0.0 0.0 0.00 0.00 0.00 69 994.8
20260904073545 63 341 0.0 0.0 0.00 0.00 0.00 68 994.8
20260904073027 63 287 0.0 0.0 0.00 0.00 0.00 69 994.8
20260904072537 62 240 0.0 0.0 0.00 0.00 0.00 70 994.8
20260904072022 62 235 0.0 0.0 0.00 0.00 0.00 72 994.8
20260904071524 62 315 0.0 0.0 0.00 0.00 0.00 72 994.8
20260904071032 61 254 0.0 0.0 0.00 0.00 0.00 72 994.9
20260904070545 61 295 0.0 0.0 0.00 0.00 0.00 74 994.9
20260904070031 61 250 0.0 0.0 0.00 0.00 0.00 75 994.9
20260904065533 60 185 0.0 0.0 0.00 0.00 0.00 75 995.0